Location: Bottom School (historical)
(37.9078°N, 89.3593°W)
Time: 22:41:46
(UTC+00:00)

STRAND 1 - Pass Details

Date: 05 April 2023
Orbit: 767 x 779 km, 98.4° (Epoch: 28 May)

Event Time Altitude Azimuth Distance (km) Brightness Sun altitude
Rises 10:48:48 0° 129° (SE) 3,242 ? -10.1°
Reaches altitude 10° 10:51:34 10° 115° (ESE) 2,317 ? -9.6°
Maximum altitude 10:55:24 22° 66° (ENE) 1,651 ? -8.9°
Drops below altitude 10° 10:59:13 10° 17° (NNE) 2,322 ? -8.1°
Sets 11:01:59 0° 3° (N) 3,251 ? -7.6°
